Regional Weather Roundup
Issued by NWS Grand Forks, ND

Home | Current Version | Previous Version | Graphics & Text | Print | Product List | Glossary On
Versions: 1 2 3 4 5 6 7 8 9 10 11 12 13 14 15 16 17 18 19 20 21 22 23 24 25 26 27 28 29 30 31 32 33 34 35 36 37 38 39 40 41 42 43 44 45 46 47 48 49 50
000
ASUS43 KFGF 291231
RWRFGF
PRAIRIE TO PINES  WEATHER ROUNDUP
NATIONAL WEATHER SERVICE EASTERN NORTH DAKOTA/GRAND FORKS ND
700 AM CDT SUN MAY 29 2016

 **SATELLITE DATA USED TO AUGMENT SKY COVER AT AUTOMATED STATIONS**
 *****  WEATHER ACROSS EASTERN NORTH DAKOTA  *****

CITY           SKY/WX    TMP DP  RH WIND       PRES   REMARKS
GRAND FORKS    CLOUDY    59  56  89 NW9       29.91S
6HR MIN TEMP:  58; 6HR MAX TEMP:  60;

GRAND FRKS AFB CLOUDY    58  57  98 N9        29.92R
GRAND FRKS NWS   N/A     57 N/A N/A NW6         N/A
DEVILS LAKE    CLOUDY    57  55  94 W6        29.95R FOG
6HR MIN TEMP:  57; 6HR MAX TEMP:  59; 6HR PCP: TRACE;

FARGO          PTSUNNY   57  55  93 W6        29.91R FOG
WAHPETON ARPT  SUNNY     55  54  94 NW3       29.94R
$$

 ***** WEATHER ACROSS CENTRAL AND WESTERN NORTH DAKOTA  *****

CITY           SKY/WX    TMP DP  RH WIND       PRES   REMARKS
BISMARCK       CLEAR     50  50 100 SW3       30.01R
6HR MIN TEMP:  45; 6HR MAX TEMP:  54;

MINOT          CLEAR     54  51  90 SW9       29.96R
6HR MIN TEMP:  53; 6HR MAX TEMP:  58;

JAMESTOWN      FOG       56  56 100 W9        29.95R VSB 1/4
6HR MIN TEMP:  52; 6HR MAX TEMP:  58;

MINOT AFB      CLEAR     51  49  94 W7        29.96R
GARRISON         N/A     49  48  97 W6        29.99R
WILLISTON      CLEAR     45  43  93 CALM      30.00R
6HR MIN TEMP:  41; 6HR MAX TEMP:  49;

DICKINSON      PTCLDY    47  43  86 W7        30.02R
6HR MIN TEMP:  42; 6HR MAX TEMP:  51;

HETTINGER      PTCLDY    45  45 100 CALM      30.07R FOG
6HR MIN TEMP:  37; 6HR MAX TEMP:  45;

$$

 *****  OTHER AIRPORT OBSERVATIONS IN OUR AREA  *****

CITY           SKY/WX    TMP DP  RH WIND       PRES   REMARKS
WALHALLA       FAIR      55  54  94 NW6       29.93R
GRAFTON AIRPOR PTSUNNY   57  57 100 NW8       29.94R
VALLEY CITY AR FOG       55  55 100 NW5       29.96R VSB 1/4
CANDO          CLOUDY    55  55 100 W6        29.97S FOG
CAVALIER APRT  PTSUNNY   57  55  94 NW7       29.92R
GWINNER        FAIR      59  57  94 W13       29.94S
SHEYENNE NWR     N/A     53  53 100 CALM      29.95S
ROLLA          CLOUDY    54  54 100 SW8       29.96R
 ***** THE ABOVE OBSERVATIONS ARE NON NWS ARE NOT QUALITY
       CONTROLLED AND MAY MIS-REPORT RAIN FOR SNOW...
$$

  *****  WEATHER ACROSS NORTHERN MINNESOTA  *****

CITY           SKY/WX    TMP DP  RH WIND       PRES   REMARKS
FLAG ISLAND    DRIZZLE   54  52  94 NW12      29.84R
WARROAD        DRIZZLE   54  50  87 W6        29.87R
ROSEAU         DRIZZLE   55  50  82 NW7       29.88R
HALLOCK        CLOUDY    57  55  94 NW6       29.90R
THF RVR FALLS  CLOUDY    57  54  88 W9        29.90S
6HR MIN TEMP:  55; 6HR MAX TEMP:  57;

BAUDETTE       LGT RAIN  55  53  93 NW12      29.83S
6HR MIN TEMP:  54; 6HR MAX TEMP:  55; 6HR PCP:  0.05;

WASKISH        LGT RAIN  55  55 100 W12       29.85R
CROOKSTON      CLOUDY    59  57  94 NW6       29.91R
GREENBUSH NDAW   N/A     55  55 100 NW6         N/A
$$
  *****  WEATHER ACROSS CENTRAL AND WEST MINNESOTA  *****

CITY           SKY/WX    TMP DP  RH WIND       PRES   REMARKS
FOSSTON        CLOUDY    55  54  94 NW5       29.90S
BEMIDJI        CLOUDY    55  54  95 W10G17    29.87S
PARK RAPIDS    CLOUDY    58  55  90 NW12      29.88S
6HR MIN TEMP:  57; 6HR MAX TEMP:  59; 6HR PCP:  0.06;

ELBOW LAKE     CLOUDY    56  56 100 NW6       29.93R FOG
6HR MIN TEMP:  55; 6HR MAX TEMP:  59;

WADENA         CLOUDY    57  55  94 NW12      29.90R
DETROIT LAKES  CLOUDY    59  55  88 NW9       29.91S
MOORHEAD       MOSUNNY   57  57 100 W5        29.92S
FERGUS FALLS   CLOUDY    57  57 100 N6        29.90R FOG
MORRIS MN      MOSUNNY   57  55  94 W5        29.92R FOG
STAPLES        CLOUDY    57  55  94 NW12      29.89R
$$
  *****  WEATHER ELSEWHERE ACROSS MINNESOTA  *****

CITY           SKY/WX    TMP DP  RH WIND       PRES   REMARKS
DULUTH         FOG       58  57  97 W8        29.80R VSB 1
6HR MIN TEMP:  55; 6HR MAX TEMP:  58; 6HR PCP:  0.06;

INTRNTL FALLS  CLOUDY    55  54  96 NW8       29.79S
6HR MIN TEMP:  55; 6HR MAX TEMP:  57; 6HR PCP:  0.05;

ELY            LGT RAIN  57  57 100 CALM      29.78S
CLOQUET        RAIN      59  57  94 W7        29.81R
WHEATON          N/A     61  59  94 W5        29.96R
BRAINERD       LGT RAIN  59  58  96 W9        29.87R
6HR MIN TEMP:  59; 6HR MAX TEMP:  59; 6HR PCP:  0.01;

HIBBING        LGT RAIN  57  57 100 NW13      29.81R FOG
6HR MIN TEMP:  57; 6HR MAX TEMP:  58; 6HR PCP:  0.15;

ALEXANDRIA     PTSUNNY   59  57  93 NW10      29.93R
6HR MIN TEMP:  58; 6HR MAX TEMP:  59; 6HR PCP:  0.05;

SAINT CLOUD    CLOUDY    61  59  93 W8        29.88R
6HR MIN TEMP:  59; 6HR MAX TEMP:  61; 6HR PCP:  0.06;

MINNEAPOLIS    CLOUDY    63  58  83 W13       29.88R
6HR MIN TEMP:  62; 6HR MAX TEMP:  63;

$$

  *****  WEATHER ACROSS SOUTH DAKOTA  *****

CITY           SKY/WX    TMP DP  RH WIND       PRES   REMARKS
SIOUX FALLS    MOSUNNY   59  57  93 CALM      30.01R
6HR MIN TEMP:  54; 6HR MAX TEMP:  59;

BROOKINGS      SUNNY     57  56  96 W6        29.99R
WATERTOWN      SUNNY     58  55  90 W8        29.97R
6HR MIN TEMP:  54; 6HR MAX TEMP:  59;

HURON          PTCLDY    56  53  90 W6        30.00R
6HR MIN TEMP:  51; 6HR MAX TEMP:  60;

SISSETON         N/A     59  56  89 NW10      29.93R
ABERDEEN       SUNNY     57  52  83 W9        29.98R
6HR MIN TEMP:  53; 6HR MAX TEMP:  59;

MITCHELL       PTCLDY    59  57  93 CALM      30.02R
PIERRE         CLEAR     52  51  97 SW5       30.03R
6HR MIN TEMP:  50; 6HR MAX TEMP:  56;

MOBRIDGE       CLEAR     53  49  86 N7        30.00R
RAPID CITY     MOCLDY    51  45  79 NW6       30.08R
6HR MIN TEMP:  44; 6HR MAX TEMP:  52;

$$

  *****  SOME WEATHER IN NEARBY STATES *****

CITY           SKY/WX    TMP DP  RH WIND       PRES   REMARKS
GLASGOW MT     CLEAR     44  39  82 S5        30.00R
6HR MIN TEMP:  44; 6HR MAX TEMP:  51;

GREAT FALLS MT CLOUDY    46  35  65 S9        30.03R
6HR MIN TEMP:  41; 6HR MAX TEMP:  49;

CHEYENNE WY    CLEAR     45  35  68 W6        30.18R
6HR MIN TEMP:  40; 6HR MAX TEMP:  52;

SCOTTSBLUFF NE CLEAR     45  42  89 N3        30.11R
6HR MIN TEMP:  43; 6HR MAX TEMP:  51;

OMAHA NE       CLOUDY    58  55  90 SE3       30.05R
6HR MIN TEMP:  56; 6HR MAX TEMP:  62;

DES MOINES IA  MOSUNNY   60  56  86 W5        30.03R
6HR MIN TEMP:  58; 6HR MAX TEMP:  64;

DAVENPORT IA   PTSUNNY   64  58  80 W13       29.99R
6HR MIN TEMP:  64; 6HR MAX TEMP:  67;

CHICAGO IL     MOSUNNY   66  62  87 SW10      29.98R
6HR MIN TEMP:  63; 6HR MAX TEMP:  67;

EAU CLAIRE WI  CLOUDY    62  61  96 W6        29.85R
6HR MIN TEMP:  59; 6HR MAX TEMP:  62; 6HR PCP:  0.12;

LA CROSSE WI   CLOUDY    65  60  84 W8        29.89R
6HR MIN TEMP:  63; 6HR MAX TEMP:  65; 6HR PCP: TRACE;

$$

  *****  SOME NATIONAL WEATHER *****

CITY           SKY/WX    TMP DP  RH WIND       PRES   REMARKS
LA GUARDIA NY  MOSUNNY   77  62  59 SW7       30.14S
6HR MIN TEMP:  74; 6HR MAX TEMP:  78;

RALEIGH NC     LGT RAIN  71  69  93 NE6       30.10S
6HR MIN TEMP:  69; 6HR MAX TEMP:  73; 6HR PCP: TRACE;

ATLANTA GA     CLOUDY    71  61  70 CALM      30.13S
6HR MIN TEMP:  67; 6HR MAX TEMP:  72;

NEW ORLEANS LA PTSUNNY   73  71  93 CALM      30.09R
6HR MIN TEMP:  69; 6HR MAX TEMP:  73;

OKLAHOMA CITY  MOCLDY    67  66  97 S5        30.09R
6HR MIN TEMP:  66; 6HR MAX TEMP:  71;

ALBUQUERQUE NM PTCLDY    56  25  30 N3        30.13R
6HR MIN TEMP:  56; 6HR MAX TEMP:  69;

SALT LAKE CITY MOCLDY    57  41  55 E8        30.07R
6HR MIN TEMP:  57; 6HR MAX TEMP:  63;

LOS ANGELES CA CLOUDY    60  54  80 W6        29.97R
6HR MIN TEMP:  59; 6HR MC1F1C2F2C3F3C4F4C5F5C6F6C7F7C8F8C9F9CaFaCbFbCcFcCd!



USA.gov is the U.S. government's official web portal to all federal, state and local government web resources and services.